This is the latest recevied weather packets stored in our database for station/object KQ7A. If no packets are shown the sender has not sent any weather packets the latest 10 day(s).
| Time | Temp. | Humidity | Pressure | Rain* | Wind** | Luminosity | Snow |
|---|---|---|---|---|---|---|---|
| 1787930199 | 16.11° C | 64% | 1021.8 hPa | 0 mm | - | 24 W/m² | - |
| 1787929898 | 16.67° C | 66% | 1022 hPa | 0 mm | - | 25 W/m² | - |
| 1787929598 | 16.11° C | 59% | 1022.1 hPa | 0 mm | - | 21 W/m² | - |
| 1787929298 | 16.67° C | 55% | 1022 hPa | 0 mm | - | 19 W/m² | - |
| 1787928995 | 16.11° C | 50% | 1021.9 hPa | 0 mm | - | 21 W/m² | - |
| 1787928691 | 16.11° C | 56% | 1021.8 hPa | 0 mm | - | 18 W/m² | - |
| 1787928389 | 16.11° C | 59% | 1021.8 hPa | 0 mm | - | 13 W/m² | - |
| 1787928088 | 16.67° C | 56% | 1021.8 hPa | 0 mm | - | 12 W/m² | - |
| 1787927787 | 16.67° C | 57% | 1021.5 hPa | 0 mm | - | 13 W/m² | - |
| 1787927482 | 16.67° C | 47% | 1021.4 hPa | 0 mm | - | 18 W/m² | - |
| 1787927172 | 16.67° C | 46% | 1021.4 hPa | 0 mm | - | 11 W/m² | - |
| 1787926872 | 16.67° C | 46% | 1021.2 hPa | 0 mm | - | 9 W/m² | - |
| 1787926561 | 16.67° C | 44% | 1021.3 hPa | 0 mm | - | 6 W/m² | - |
| 1787926259 | 16.67° C | 42% | 1021.3 hPa | 0 mm | - | 3 W/m² | - |
| 1787925954 | 16.11° C | 46% | 1021.3 hPa | 0 mm | - | 5 W/m² | - |
| 1787925649 | 16.11° C | 44% | 1021.2 hPa | 0 mm | - | 6 W/m² | - |
| 1787925344 | 16.11° C | 48% | 1021.4 hPa | 0 mm | - | 4 W/m² | - |
| 1787925043 | 16.11° C | 44% | 1021.4 hPa | 0 mm | - | 2 W/m² | - |
| 1787924737 | 16.11° C | 46% | 1021.2 hPa | 0 mm | - | 0 W/m² | - |
| 1787924432 | 15.56° C | 46% | 1021.2 hPa | 0 mm | - | 0 W/m² | - |
| 1787924126 | 15.56° C | 52% | 1021.2 hPa | 0 mm | - | 0 W/m² | - |
| 1787923821 | 15.56° C | 56% | 1021.2 hPa | 0 mm | - | 0 W/m² | - |
| 1787923515 | 15.56° C | 51% | 1020.9 hPa | 0 mm | - | 0 W/m² | - |
| 1787923211 | 15.56° C | 47% | 1021.1 hPa | 0 mm | - | 0 W/m² | - |
| 1787922907 | 16.11° C | 46% | 1020.9 hPa | 0 mm | - | 0 W/m² | - |
* Rain latest hour (hover to see other rain measurements)
** Current wind speed in m/s (hover to see current wind gust speed)